Temp
-10 -10 -11 -11 -12 -11 -12 -12 -12 -12 -12 -12 -12 -12 -12 -12 -12 -12 -12 -12 -11 -12 -12 -12 -12 -12 -12 -12 -12 -12 -12 -12 -12 -12 -12 -12 -12 -11 -12 -13 -12 -12 -13
-10 -10 -11 -11 -12 -12 -12 -12 -12 -12 -12 -12 -12 -11 -12 -12 -12 -12 -12 -12 -11 -12 -12 -12 -12 -12 -12 -12 -12 -12 -12 -12 -12 -12 -12 -12 -12 -12 -12 -11 -12 -13 -13
-11 -11 -11 -12 -12 -12 -12 -12 -12 -12 -12 -12 -12 -12 -11 -12 -12 -12 -12 -12 -12 -12 -12 -12 -12 -12 -12 -12 -12 -12 -12 -12 -12 -12 -12 -12 -11 -11 -12 -12 -12 -12 -13
-11 -10 -10 -11 -12 -12 -12 -12 -12 -12 -11 -12 -12 -12 -12 -12 -12 -12 -12 -12 -12 -12 -12 -12 -12 -12 -12 -12 -12 -12 -12 -12 -12 -12 -12 -12 -11 -11 -10 -11 -11 -11 -11
-11 -11 -11 -11 -11 -12 -13 -12 -12 -12 -12 -12 -12 -12 -12 -12 -12 -12 -12 -12 -12 -12 -12 -12 -12 -12 -12 -12 -12 -12 -12 -12 -12 -12 -12 -12 -12 -11 -11 -10 -11 -11 -11
-11 -11 -11 -11 -11 -11 -13 -13 -13 -12 -12 -12 -12 -12 -12 -12 -12 -12 -12 -12 -13 -13 -13 -13 -13 -12 -12 -12 -12 -12 -12 -12 -12 -12 -12 -12 -12 -12 -12 -12 -12 -12 -12
-11 -12 -11 -11 -11 -11 -12 -13 -13 -13 -12 -12 -13 -13 -13 -13 -12 -13 -13 -13 -13 -13 -13 -13 -13 -13 -13 -13 -13 -13 -13 -13 -13 -13 -13 -13 -13 -13 -13 -13 -12 -13 -13
-11 -12 -12 -11 -11 -12 -12 -13 -13 -13 -13 -13 -13 -13 -13 -13 -13 -13 -13 -13 -13 -13 -13 -13 -13 -13 -13 -13 -13 -13 -13 -13 -13 -13 -13 -14 -13 -13 -13 -13 -13 -13 -13
-11 -11 -12 -12 -12 -12 -12 -12 -13 -13 -13 -13 -13 -12 -13 -13 -13 -13 -12 -12 -12 -12 -12 -12 -12 -12 -12 -13 -13 -13 -14 -14 -14 -14 -14 -14 -14 -14 -14 -14 -14 -14 -14
-12 -12 -12 -12 -13 -13 -13 -13 -13 -14 -14 -14 -14 -13 -13 -13 -13 -12 -12 -12 -12 -12 -13 -13 -13 -13 -13 -13 -13 -13 -14 -14 -14 -14 -14 -14 -14 -14 -14 -15 -15 -15 -15
-12 -13 -12 -12 -13 -13 -14 -14 -14 -13 -13 -13 -13 -13 -13 -13 -13 -13 -13 -13 -13 -13 -13 -13 -12 -13 -13 -14 -14 -14 -13 -14 -14 -14 -14 -14 -14 -15 -15 -15 -15 -15 -16
-11 -11 -12 -12 -13 -13 -14 -14 -14 -13 -13 -13 -13 -13 -13 -13 -14 -14 -14 -13 -13 -13 -13 -13 -13 -13 -14 -14 -14 -14 -14 -14 -14 -14 -14 -15 -15 -15 -15 -15 -15 -16 -17
-11 -11 -12 -12 -12 -13 -13 -14 -13 -13 -13 -13 -13 -13 -14 -14 -14 -14 -14 -13 -13 -13 -13 -13 -13 -14 -14 -14 -14 -15 -15 -15 -14 -15 -15 -15 -15 -15 -15 -16 -17 -19 -20
-12 -12 -12 -12 -12 -12 -13 -13 -13 -13 -13 -14 -14 -14 -14 -14 -14 -14 -14 -14 -14 -14 -14 -14 -14 -14 -14 -15 -15 -15 -15 -15 -15 -15 -15 -15 -16 -16 -16 -18 -21 -23 -24
-12 -12 -12 -12 -12 -12 -12 -13 -14 -14 -14 -14 -14 -14 -14 -14 -14 -14 -14 -15 -15 -15 -15 -15 -15 -15 -15 -15 -15 -15 -15 -15 -15 -15 -16 -16 -16 -17 -21 -23 -24 -24 -24
-12 -12 -12 -12 -12 -13 -13 -14 -14 -14 -14 -14 -13 -14 -14 -15 -14 -15 -15 -15 -15 -15 -15 -15 -15 -15 -15 -16 -16 -16 -16 -16 -15 -16 -16 -17 -20 -23 -25 -25 -25 -24 -24
-12 -12 -13 -13 -13 -13 -14 -14 -14 -14 -14 -14 -14 -15 -15 -15 -15 -15 -16 -15 -15 -15 -15 -15 -15 -15 -15 -16 -16 -16 -16 -16 -16 -16 -19 -23 -25 -25 -25 -25 -25 -24 -24
-12 -13 -14 -14 -14 -14 -14 -14 -15 -15 -15 -15 -15 -15 -15 -15 -15 -15 -15 -15 -15 -15 -15 -16 -16 -16 -16 -16 -16 -16 -16 -17 -17 -20 -24 -25 -25 -26 -25 -25 -25 -25 -24
-14 -14 -14 -15 -15 -14 -15 -15 -15 -15 -15 -15 -15 -15 -15 -15 -15 -15 -15 -15 -15 -15 -16 -16 -16 -17 -17 -17 -16 -16 -17 -18 -22 -25 -25 -26 -26 -26 -26 -25 -25 -25 -25
-13 -14 -14 -15 -15 -15 -16 -16 -15 -15 -15 -15 -15 -15 -15 -15 -15 -15 -16 -16 -16 -16 -16 -17 -17 -17 -17 -16 -17 -17 -18 -21 -25 -26 -26 -26 -26 -26 -26 -26 -25 -25 -25
-14 -15 -15 -15 -15 -16 -15 -15 -15 -15 -15 -15 -15 -15 -15 -15 -15 -16 -16 -16 -16 -17 -17 -17 -17 -17 -17 -17 -17 -19 -22 -25 -26 -26 -27 -27 -27 -26 -26 -25 -25 -26 -26
-15 -15 -16 -15 -15 -16 -16 -15 -15 -15 -15 -15 -16 -16 -15 -16 -16 -16 -17 -17 -18 -18 -18 -18 -17 -18 -17 -18 -20 -23 -25 -27 -27 -27 -27 -27 -27 -26 -26 -26 -26 -26 -27
-16 -16 -16 -17 -16 -15 -15 -15 -15 -15 -16 -16 -16 -16 -16 -16 -16 -17 -18 -18 -18 -18 -18 -18 -19 -18 -19 -21 -23 -25 -27 -27 -28 -27 -27 -27 -27 -27 -26 -26 -26 -27 -27
-16 -16 -17 -16 -16 -16 -16 -16 -16 -16 -16 -16 -16 -16 -16 -16 -17 -17 -17 -18 -19 -19 -19 -19 -20 -21 -23 -24 -25 -27 -28 -28 -28 -28 -28 -27 -27 -27 -27 -26 -27 -27 -27
-16 -16 -17 -17 -17 -17 -16 -16 -16 -16 -16 -16 -16 -16 -17 -17 -17 -18 -19 -19 -19 -20 -20 -21 -23 -25 -26 -26 -26 -27 -28 -29 -29 -28 -28 -28 -27 -27 -27 -27 -27 -27 -28
-17 -16 -16 -17 -18 -17 -17 -17 -17 -17 -17 -17 -17 -17 -18 -18 -19 -19 -20 -20 -20 -21 -22 -24 -26 -26 -26 -26 -27 -28 -29 -29 -29 -29 -28 -28 -27 -27 -27 -27 -27 -28 -28
Height
5771 5774 5776 5779 5783 5786 5789 5793 5795 5797 5797 5799 5800 5801 5801 5802 5803 5804 5804 5802 5802 5802 5803 5803 5803 5802 5802 5802 5801 5800 5799 5798 5796 5795 5794 5793 5792 5790 5789 5787 5785 5784 5782
5765 5768 5768 5771 5774 5778 5780 5786 5788 5788 5790 5792 5794 5795 5794 5795 5796 5797 5798 5798 5796 5796 5795 5795 5796 5793 5793 5792 5790 5789 5789 5789 5786 5784 5784 5783 5784 5781 5778 5775 5775 5774 5772
5759 5762 5764 5765 5768 5771 5774 5779 5782 5782 5783 5785 5785 5785 5786 5788 5789 5789 5789 5790 5789 5788 5788 5787 5787 5787 5785 5783 5781 5778 5777 5777 5777 5774 5771 5769 5769 5769 5768 5765 5763 5761 5761
5752 5756 5759 5762 5762 5764 5766 5769 5771 5772 5774 5775 5777 5776 5777 5779 5779 5780 5781 5781 5781 5780 5779 5779 5778 5777 5776 5775 5773 5771 5768 5764 5763 5762 5760 5757 5755 5752 5753 5754 5752 5749 5746
5744 5749 5753 5754 5755 5757 5759 5761 5762 5763 5765 5768 5768 5769 5770 5771 5772 5772 5771 5771 5770 5770 5770 5769 5768 5767 5766 5764 5762 5760 5757 5755 5752 5750 5747 5744 5740 5737 5736 5736 5735 5735 5734
5734 5738 5742 5746 5748 5750 5752 5753 5754 5754 5756 5758 5759 5761 5762 5762 5763 5763 5762 5762 5761 5761 5760 5758 5757 5756 5754 5752 5750 5747 5745 5742 5740 5737 5733 5730 5726 5723 5719 5718 5717 5718 5718
5724 5728 5732 5736 5741 5743 5744 5746 5745 5746 5746 5747 5749 5750 5752 5753 5753 5753 5753 5752 5752 5751 5749 5748 5746 5744 5742 5740 5738 5736 5733 5729 5725 5722 5719 5716 5712 5708 5706 5704 5703 5702 5702
5712 5718 5721 5725 5728 5733 5734 5736 5736 5737 5736 5737 5739 5739 5741 5742 5743 5743 5742 5742 5741 5739 5738 5737 5736 5735 5733 5731 5728 5724 5720 5716 5712 5708 5703 5700 5697 5693 5688 5685 5682 5682 5681
5704 5708 5711 5714 5716 5719 5724 5725 5725 5727 5728 5728 5729 5730 5731 5732 5732 5732 5731 5731 5729 5728 5728 5726 5724 5721 5718 5715 5712 5708 5705 5701 5698 5696 5692 5688 5683 5678 5673 5667 5662 5655 5659
5695 5699 5701 5704 5707 5710 5711 5713 5715 5716 5717 5719 5721 5722 5722 5721 5721 5720 5720 5719 5718 5717 5715 5713 5711 5708 5704 5700 5696 5693 5689 5686 5681 5679 5675 5670 5665 5661 5655 5648 5641 5631 5622
5685 5688 5691 5693 5695 5697 5700 5702 5703 5703 5706 5708 5710 5710 5711 5711 5710 5710 5710 5710 5708 5705 5702 5700 5697 5694 5690 5687 5684 5681 5678 5674 5669 5665 5660 5655 5650 5644 5637 5629 5620 5609 5596
5673 5676 5678 5681 5684 5686 5688 5692 5692 5693 5697 5698 5699 5699 5699 5699 5699 5700 5699 5697 5695 5692 5690 5687 5684 5680 5677 5674 5670 5665 5661 5658 5655 5649 5644 5638 5630 5622 5613 5604 5594 5582 5567
5664 5665 5667 5671 5673 5676 5678 5680 5683 5685 5686 5688 5688 5688 5688 5689 5689 5688 5687 5685 5683 5681 5678 5676 5673 5669 5664 5660 5656 5652 5648 5643 5637 5631 5624 5616 5608 5600 5591 5578 5567 5556 5545
5653 5654 5656 5660 5663 5665 5668 5671 5672 5675 5677 5677 5677 5678 5679 5679 5679 5677 5675 5673 5670 5668 5665 5663 5659 5656 5651 5645 5641 5637 5631 5625 5620 5612 5604 5595 5585 5574 5563 5552 5542 5534 5530
5640 5643 5647 5651 5654 5656 5658 5660 5664 5665 5665 5665 5665 5666 5667 5666 5665 5663 5661 5660 5658 5655 5652 5649 5645 5641 5636 5630 5626 5620 5614 5607 5599 5590 5580 5570 5559 5548 5538 5531 5528 5524 5521
5630 5631 5634 5638 5642 5645 5648 5651 5654 5655 5654 5653 5654 5654 5654 5654 5654 5652 5651 5649 5646 5641 5637 5633 5630 5626 5621 5614 5608 5602 5595 5587 5578 5568 5557 5546 5535 5528 5524 5521 5518 5514 5511
5620 5619 5623 5627 5631 5634 5637 5640 5641 5640 5641 5643 5644 5644 5645 5644 5643 5641 5639 5635 5632 5628 5624 5620 5616 5609 5603 5596 5590 5583 5575 5566 5557 5546 5535 5527 5522 5519 5515 5512 5509 5506 5502
5608 5608 5610 5614 5620 5623 5626 5628 5628 5627 5628 5630 5632 5633 5633 5632 5629 5628 5625 5621 5617 5613 5609 5604 5598 5592 5586 5579 5571 5564 5556 5546 5535 5525 5521 5518 5515 5512 5508 5505 5501 5497 5492
5594 5599 5601 5605 5607 5610 5613 5614 5614 5617 5618 5620 5621 5622 5621 5619 5617 5614 5610 5606 5603 5599 5593 5588 5581 5574 5568 5561 5554 5546 5536 5527 5518 5514 5512 5510 5508 5506 5502 5498 5494 5489 5484
5584 5588 5590 5595 5597 5601 5603 5605 5606 5607 5609 5610 5610 5610 5608 5607 5604 5601 5597 5594 5588 5583 5578 5571 5564 5559 5553 5546 5537 5529 5520 5512 5508 5506 5504 5502 5501 5499 5495 5491 5487 5481 5474
5572 5576 5581 5585 5588 5591 5594 5596 5597 5598 5598 5598 5599 5597 5595 5592 5589 5586 5582 5577 5573 5568 5563 5557 5551 5543 5537 5530 5522 5514 5506 5501 5499 5497 5496 5495 5495 5492 5489 5484 5479 5471 5464
5560 5566 5570 5576 5579 5582 5584 5585 5585 5585 5586 5586 5585 5583 5582 5579 5575 5570 5566 5563 5559 5554 5547 5540 5534 5528 5523 5516 5507 5499 5494 5492 5492 5491 5490 5490 5488 5485 5481 5478 5472 5464 5458
5549 5554 5560 5565 5568 5572 5574 5576 5574 5574 5574 5572 5570 5569 5567 5564 5561 5556 5553 5548 5543 5537 5531 5525 5518 5514 5508 5501 5494 5489 5486 5486 5485 5484 5484 5484 5482 5479 5475 5471 5465 5459 5452
5537 5541 5546 5553 5556 5559 5560 5560 5561 5560 5560 5558 5556 5555 5552 5548 5546 5542 5538 5533 5528 5522 5517 5511 5505 5500 5494 5489 5485 5482 5480 5478 5478 5478 5477 5477 5475 5473 5470 5465 5459 5453 5448
5524 5529 5534 5539 5542 5545 5547 5548 5547 5548 5547 5545 5543 5540 5537 5533 5531 5528 5524 5519 5513 5508 5503 5498 5493 5488 5485 5481 5476 5472 5470 5470 5471 5471 5471 5471 5469 5467 5464 5460 5454 5449 5445
5513 5518 5522 5525 5529 5533 5535 5536 5537 5536 5534 5531 5528 5526 5524 5520 5517 5515 5511 5506 5502 5496 5491 5486 5483 5480 5477 5473 5468 5464 5464 5464 5464 5465 5465 5464 5463 5461 5458 5454 5450 5445 5441
Wind_Speed
37 31 31 26 25 25 23 23 24 24 25 24 25 25 24 23 22 23 25 26 26 26 27 28 29 31 30 32 32 32 31 32 34 35 35 37 42 38 38 37 37 38 38
37 32 32 29 30 30 31 28 27 26 27 28 27 27 25 25 25 26 27 28 29 30 30 31 32 33 33 35 36 37 36 35 38 38 38 40 38 40 42 44 40 39 41
37 34 33 34 36 32 35 32 27 29 29 29 29 28 27 28 28 28 28 30 31 31 32 33 33 33 35 36 38 41 42 40 39 41 43 42 44 44 44 46 47 46 45
40 38 35 33 31 29 33 31 30 30 31 30 29 30 30 30 30 30 32 33 34 35 35 36 37 37 37 38 40 43 45 45 45 45 47 50 51 50 50 49 47 46 42
38 36 35 36 36 32 33 33 34 33 32 31 31 32 32 33 33 34 35 36 37 37 37 39 38 39 41 43 46 47 47 48 49 50 52 54 55 55 56 55 47 45 45
35 35 36 37 36 38 32 34 36 38 37 35 34 33 35 37 38 39 38 38 38 39 40 41 43 45 47 48 49 50 50 52 54 56 57 58 57 54 54 52 52 52 54
35 34 36 37 35 41 42 37 39 39 37 36 37 38 41 41 41 41 39 39 40 42 44 46 48 49 50 51 52 53 55 58 59 59 59 58 56 55 55 57 58 60 61
41 36 40 38 37 36 43 48 40 42 42 45 42 43 40 41 42 42 41 41 42 45 48 49 50 51 54 56 58 59 62 63 62 61 59 56 55 57 60 64 68 70 70
38 36 38 39 39 38 35 41 46 54 50 50 49 48 45 44 46 44 43 44 46 48 49 50 54 56 59 60 62 62 61 59 58 58 55 56 59 62 66 71 75 80 79
40 39 42 42 42 40 39 41 45 42 46 47 45 45 46 46 44 45 46 47 47 48 51 55 58 59 61 61 60 58 57 56 54 54 57 60 63 67 73 78 79 82 88
42 43 41 42 40 40 39 39 43 43 43 46 47 45 44 44 43 43 45 48 50 52 55 56 59 59 56 54 55 57 59 59 57 60 63 66 72 77 79 81 86 91 96
41 44 46 43 41 40 38 39 44 46 46 45 50 44 43 41 44 47 50 51 53 55 56 56 55 53 54 55 58 60 61 62 64 67 70 75 80 82 85 88 94 99 98
35 34 37 37 40 39 38 40 45 44 45 42 41 40 40 44 48 49 50 51 52 52 52 52 53 55 56 59 62 62 63 65 67 71 78 81 84 87 92 97 98 85 73
37 39 38 39 43 42 42 45 45 46 43 39 40 42 45 49 49 47 47 48 47 47 48 51 55 58 61 61 64 67 70 70 73 78 79 84 88 92 97 90 68 51 43
41 35 33 39 41 43 43 41 39 39 41 45 47 48 50 48 47 46 45 43 44 46 50 53 55 57 59 59 63 66 70 73 75 79 83 88 95 94 73 51 41 38 38
38 35 35 38 40 41 41 39 40 45 49 50 50 50 48 45 42 41 41 43 46 50 54 57 59 61 61 63 67 71 74 76 78 85 88 93 79 51 40 38 39 38 37
43 39 34 38 41 40 41 44 46 47 48 49 48 43 40 40 40 41 44 49 53 55 55 56 57 59 62 66 70 73 75 78 83 89 85 55 39 37 38 37 38 38 37
44 41 39 40 39 38 39 41 44 46 45 41 40 40 39 40 42 44 49 52 52 52 53 56 60 62 65 69 71 72 77 82 89 75 43 34 32 28 27 27 33 41 44
49 46 34 35 38 37 37 39 42 40 39 40 41 42 41 45 45 49 50 50 53 56 59 63 63 65 67 70 71 77 81 87 66 41 33 30 29 28 30 36 41 42 44
41 42 40 36 35 35 33 35 38 39 41 42 44 44 47 48 48 51 52 53 56 60 63 63 64 67 66 68 75 82 85 69 42 31 33 30 29 30 33 33 37 43 40
43 42 37 33 34 33 33 37 36 35 35 34 35 38 43 45 47 51 53 56 60 63 63 63 66 67 70 73 81 81 68 41 31 29 27 26 29 31 31 28 33 34 37
40 38 37 36 32 30 33 35 36 33 32 34 36 40 44 47 50 52 53 57 58 61 63 64 68 70 73 78 75 62 46 31 29 28 25 26 25 25 25 30 32 31 31
37 39 37 34 35 33 30 35 36 35 33 33 38 44 48 50 52 53 56 59 61 63 65 66 67 71 75 69 57 46 33 29 29 28 26 25 24 26 26 26 28 29 30
33 48 37 34 33 34 39 40 34 32 34 40 45 48 51 52 52 56 58 61 62 62 63 65 66 63 60 51 44 39 31 32 34 29 28 29 27 26 26 26 26 27 28
36 46 41 39 36 38 38 33 32 37 40 42 46 49 51 53 56 59 60 62 61 59 59 59 52 45 38 38 38 34 32 34 31 32 27 28 25 23 24 27 27 24 23
43 46 50 44 37 36 34 35 38 38 39 44 47 51 55 57 58 60 59 60 59 57 54 45 38 35 35 35 34 28 30 27 29 27 25 24 25 24 23 24 24 23 20
Wind_Direction
258 259 264 260 256 257 252 249 252 250 255 257 255 259 262 261 263 267 269 273 275 274 270 267 268 269 268 271 278 279 280 282 281 280 275 277 275 287 287 282 281 281 279
254 254 259 261 262 258 258 251 251 254 255 255 256 259 264 265 267 268 268 268 270 269 270 268 269 271 273 276 279 280 282 284 283 282 281 281 278 280 280 282 279 275 277
248 247 249 254 252 253 253 252 248 250 254 258 263 266 267 269 272 273 274 274 274 272 271 270 270 271 273 277 278 281 285 285 283 282 283 282 282 283 281 279 281 277 273
247 248 244 245 249 257 259 258 253 253 259 264 269 274 275 276 277 278 277 276 275 274 274 274 275 276 277 278 280 283 284 287 288 289 289 289 286 284 281 278 271 270 271
248 246 243 239 242 245 254 255 257 257 260 260 262 264 269 271 271 272 273 274 274 276 277 276 276 277 278 280 282 283 283 285 286 287 288 287 287 286 285 283 269 265 269
248 249 249 247 245 248 240 250 253 258 260 263 263 264 270 271 272 272 273 274 275 275 275 276 276 277 277 279 281 283 285 285 286 286 286 285 283 281 278 274 271 270 272
253 252 252 253 246 243 248 246 249 255 259 261 260 263 268 269 269 270 271 272 274 275 276 278 279 281 283 284 285 285 285 284 284 284 285 282 280 279 279 279 275 277 278
248 246 251 255 257 246 246 244 242 243 250 254 255 259 265 267 270 272 274 275 275 276 276 278 280 281 281 281 282 282 282 282 282 281 278 277 279 281 281 283 282 281 282
244 252 254 257 261 262 253 250 247 245 246 248 253 259 260 265 270 274 272 271 272 275 278 281 282 283 285 286 285 286 284 283 280 278 280 284 286 288 288 288 288 288 286
247 251 256 257 257 258 259 256 249 247 251 252 258 263 265 265 269 270 270 272 274 278 281 282 284 286 287 288 287 286 284 282 282 284 285 286 288 289 289 290 291 291 290
250 249 253 252 250 249 251 252 247 248 253 260 262 267 268 268 268 268 270 274 278 280 281 285 287 286 287 286 286 286 285 284 283 284 286 288 291 293 293 293 293 292 292
248 249 246 250 251 238 235 245 249 255 258 259 263 264 264 261 267 274 280 281 282 284 287 286 285 284 284 285 288 289 285 283 284 286 289 292 293 294 296 295 295 295 296
245 243 243 250 241 235 235 239 245 255 259 259 264 265 267 272 277 279 281 281 283 284 283 283 283 283 285 287 288 287 285 284 286 289 291 294 296 297 298 299 298 298 289
245 242 246 242 236 237 237 240 246 253 259 260 263 268 271 274 278 278 279 279 279 280 282 283 283 285 286 287 286 283 283 286 288 291 293 296 298 299 298 301 300 289 283
244 249 250 248 245 245 249 249 250 251 258 260 259 261 269 274 275 276 275 278 281 283 285 286 288 289 287 284 284 286 288 292 293 294 297 300 301 302 304 298 285 280 285
243 239 242 245 247 248 246 247 252 253 254 258 264 269 271 271 271 274 279 282 285 288 291 292 290 287 288 290 292 294 294 296 296 300 302 303 306 300 290 286 281 285 285
246 240 247 249 251 248 245 246 252 258 263 264 266 267 266 268 275 281 286 289 290 292 291 291 292 293 294 295 294 296 296 297 302 302 307 305 292 288 288 287 292 290 293
247 243 240 241 244 246 251 255 257 257 258 262 264 264 268 274 280 286 290 292 292 293 294 296 298 298 297 297 296 297 300 302 306 309 299 285 288 289 296 292 293 301 300
244 244 246 234 239 243 243 243 248 252 257 260 263 269 274 277 283 290 293 294 293 295 299 298 298 298 295 297 298 300 303 307 310 298 285 279 284 285 296 299 299 301 300
240 240 237 241 241 236 238 247 254 257 259 265 271 278 281 285 291 294 296 297 299 298 298 297 296 295 297 298 303 304 306 309 302 280 280 278 284 293 297 299 299 301 306
235 228 233 228 225 225 237 247 254 261 265 271 276 281 286 291 295 297 300 298 297 296 295 297 296 300 302 302 302 305 309 304 281 272 270 279 290 290 295 308 320 317 314
223 226 212 219 224 232 243 247 252 256 266 273 282 288 295 298 300 301 299 296 295 296 298 299 300 303 302 302 306 309 307 290 269 264 268 278 281 294 305 312 318 316 315
212 211 219 224 230 239 251 257 256 261 269 280 285 291 296 299 301 298 294 294 296 298 299 302 304 303 304 308 310 308 294 273 262 261 267 270 282 299 304 316 317 314 316
230 221 223 227 234 245 249 251 255 267 279 286 290 293 296 298 296 294 294 295 296 299 302 303 305 308 309 311 308 303 276 266 260 266 265 269 280 295 306 313 316 316 324
222 226 220 231 240 245 246 251 265 275 280 285 290 296 295 293 292 292 293 295 297 300 303 305 308 308 313 313 308 293 270 267 267 264 269 274 279 287 300 318 312 318 327
226 229 234 234 234 239 249 265 275 279 286 294 296 293 291 291 291 293 296 299 300 303 302 303 302 304 312 318 310 291 274 260 266 264 273 276 279 282 297 312 314 308 313